Location: Newark
(13.6797°N, 8.5297°E)
Time: 21:01:05
(UTC+00:00)

Vanguard 3 - All Passes

Search period start: 25 January 2020 00:00
Search period end: 04 February 2020 00:00
Orbit: 507 x 3263 km, 33.4° (Epoch: 25 January)

Date Brightness Start Highest point End Pass type
(mag) Time Alt. Az. Time Alt. Az. Time Alt. Az.
25 Jan - 00:04:34 10° WNW 00:14:44 87° SSW 00:20:18 10° SE night (unlit)
25 Jan - 11:23:52 10° S 11:32:27 20° SE 11:43:30 10° E daylight
25 Jan - 13:32:11 10° SW 13:47:01 64° SE 14:06:45 10° ENE daylight
25 Jan - 15:46:13 10° WSW 16:04:28 66° NNW 16:23:27 10° NE daylight
25 Jan - 18:06:03 10° WNW 18:24:11 40° NNW 18:38:28 10° NE visible
25 Jan - 20:28:29 10° NW 20:43:38 35° N 20:53:25 10° ENE visible
25 Jan - 22:47:27 10° NW 23:00:03 59° NNE 23:06:56 10° ESE visible
26 Jan - 01:05:00 10° WNW 01:12:16 32° SW 01:16:55 10° SSE night (unlit)
26 Jan - 12:18:49 10° SSW 12:30:54 41° SE 12:48:05 10° ENE daylight
26 Jan - 14:30:19 10° WSW 14:46:42 85° NNW 15:06:59 10° ENE daylight
26 Jan - 16:47:13 10° W 17:05:42 49° NNW 17:22:47 10° NE daylight
26 Jan - 19:08:59 10° WNW 19:26:00 36° N 19:38:10 10° ENE visible
26 Jan - 21:29:43 10° NW 21:44:17 45° NNE 21:52:50 10° E visible
26 Jan - 23:47:31 10° WNW 23:58:36 72° SW 00:04:39 10° SE night (unlit)
27 Jan - 11:07:02 10° S 11:15:36 22° SE 11:27:15 10° E daylight
27 Jan - 13:15:44 10° SW 13:29:43 71° SE 13:49:37 10° ENE daylight
27 Jan - 15:29:52 10° WSW 15:47:19 61° NNW 16:06:37 10° NE daylight
27 Jan - 17:49:30 10° WNW 18:07:35 39° N 18:22:27 10° NE visible
27 Jan - 20:11:11 10° NW 20:27:28 39° N 20:38:01 10° ENE visible
27 Jan - 22:30:02 10° NW 22:43:56 71° NNE 22:51:26 10° ESE visible
28 Jan - 00:48:33 10° W 00:56:00 27° SW 01:00:53 10° S night (unlit)
28 Jan - 12:02:21 10° SSW 12:13:47 46° SE 12:31:03 10° ENE daylight
28 Jan - 14:14:01 10° WSW 14:29:29 78° NNW 14:49:51 10° NE daylight
28 Jan - 16:30:55 10° W 16:48:50 46° NNW 17:06:18 10° NE daylight
28 Jan - 18:52:04 10° WNW 19:09:38 38° N 19:22:31 10° ENE visible
28 Jan - 21:12:11 10° NW 21:28:08 52° NNE 21:37:25 10° E visible
28 Jan - 23:30:26 10° WNW 23:42:20 61° SW 23:48:54 10° SE night (unlit)
29 Jan - 10:50:23 10° S 10:58:46 25° SE 11:10:45 10° E daylight
29 Jan - 12:59:27 10° SW 13:12:33 78° SE 13:32:20 10° ENE daylight
29 Jan - 15:13:42 10° W 15:30:18 56° NNW 15:49:42 10° NE daylight
29 Jan - 17:33:01 10° WNW 17:50:59 39° N 18:06:25 10° ENE visible
29 Jan - 19:53:51 10° NW 20:11:12 43° NNE 20:22:33 10° E visible
29 Jan - 22:12:35 10° WNW 22:27:40 82° NNE 22:35:50 10° ESE visible
30 Jan - 00:32:07 10° W 00:39:39 24° SW 00:44:44 10° S night (unlit)
30 Jan - 11:46:02 10° SSW 11:56:45 51° SE 12:13:53 10° ENE daylight
30 Jan - 13:57:52 10° WSW 14:12:24 72° NNW 14:32:37 10° NE daylight
30 Jan - 16:14:43 10° W 16:32:03 44° NNW 16:49:46 10° NE daylight
30 Jan - 18:35:10 10° WNW 18:53:12 40° N 19:06:52 10° ENE visible
30 Jan - 20:54:39 10° NW 21:11:49 60° NNE 21:21:52 10° ESE visible
30 Jan - 23:13:19 10° WNW 23:25:55 52° SW 23:33:02 10° SSE visible
31 Jan - 10:33:54 10° S 10:41:58 28° SE 10:54:05 10° E daylight
31 Jan - 12:43:19 10° SW 12:55:31 86° SE 13:14:57 10° ENE daylight
31 Jan - 14:57:40 10° W 15:13:23 52° NNW 15:32:44 10° NE daylight
31 Jan - 17:16:34 10° WNW 17:34:24 39° N 17:50:22 10° ENE visible
31 Jan - 19:36:30 10° NW 19:54:48 48° NNE 20:07:00 10° E visible
31 Jan - 21:55:08 10° WNW 22:11:14 87° SW 22:20:06 10° SE visible
01 Feb - 00:15:46 10° W 00:23:13 21° SW 00:28:27 10° S night (unlit)
01 Feb - 09:25:23 10° SE 09:27:46 11° SE 09:30:25 10° ESE daylight
01 Feb - 11:29:52 10° SW 11:39:49 58° SE 11:56:37 10° ENE daylight
01 Feb - 13:41:54 10° WSW 13:55:30 65° NNW 14:15:18 10° NE daylight
01 Feb - 15:58:38 10° WNW 16:15:21 42° N 16:33:15 10° ENE daylight
01 Feb - 18:18:14 10° WNW 18:36:41 42° N 18:51:08 10° ENE visible
01 Feb - 20:37:07 10° NW 20:55:21 68° NNE 21:06:13 10° ESE visible
01 Feb - 22:56:13 10° WNW 23:09:23 45° SW 23:17:03 10° SSE visible
02 Feb - 10:17:34 10° SSW 10:25:15 32° SE 10:37:18 10° ENE daylight
02 Feb - 12:27:20 10° WSW 12:38:40 85° NNW 12:57:30 10° ENE daylight
02 Feb - 14:41:45 10° W 14:56:37 48° NNW 15:15:42 10° NE daylight
02 Feb - 17:00:08 10° WNW 17:17:49 40° N 17:34:18 10° ENE daylight
02 Feb - 19:19:10 10° NW 19:38:15 53° NNE 19:51:19 10° E visible
02 Feb - 21:37:41 10° WNW 21:54:39 77° SW 22:04:15 10° SE visible
02 Feb - 23:59:31 10° W 00:06:44 18° SW 00:12:00 10° S night (unlit)
03 Feb - 09:07:52 10° SSE 09:11:18 13° SE 09:15:26 10° ESE daylight
03 Feb - 11:13:49 10° SW 11:23:03 65° SE 11:39:17 10° ENE daylight
03 Feb - 13:26:04 10° W 13:38:45 58° NNW 13:57:55 10° NE daylight
03 Feb - 15:42:37 10° WNW 15:58:42 40° N 16:16:42 10° ENE daylight
03 Feb - 18:01:19 10° NW 18:20:05 45° NNE 18:35:19 10° E visible
03 Feb - 20:19:36 10° NW 20:38:41 76° NNE 20:50:25 10° ESE visible
03 Feb - 22:39:08 10° WNW 22:52:43 40° SW 23:00:57 10° SSE visible
